Preview of NWS' New Version of Forecast
This preview is not operational and should not be used for support decisions.

Regional Weather Roundup (RWR)

Issued by National Weather Service (NWS)

                            
000
ASUS45 KCYS 182210
RWRWY 

WYOMING REGIONAL WEATHER ROUNDUP
NATIONAL WEATHER SERVICE CHEYENNE WY
400 PM MDT SUN AUG 18 2019

NOTE:  "FAIR" INDICATES FEW OR NO CLOUDS BELOW 12,000 FEET
WITH NO SIGNIFICANT WEATHER AND/OR OBSTRUCTIONS TO VISIBILITY.

WYZ001-182300-
YELLOWSTONE NATIONAL PARK
  
CITY           SKY/WX    TMP DP  RH WIND       PRES   REMARKS
LK YELLOWSTONE   N/A     70  32  24 SW8       30.20R                  
W YELLOWSTONE  NOT AVBL                                               

$$
WYZ002>013-054>058-071-098>099-182300-
NORTHERN WYOMING
  
CITY           SKY/WX    TMP DP  RH WIND       PRES   REMARKS
JACKSON        FAIR      80  32  17 W15G29    30.09F                  
CODY           FAIR      85  37  18 VRB7G16   29.92F                  
GREYBULL       FAIR      85  43  22 SE6       29.86F                  
WORLAND        FAIR      87  39  18 NE7       29.87F                  
SHERIDAN       FAIR      86  44  23 VRB6      29.87F                  
BUFFALO        FAIR      78  46  32 CALM      29.94F                  
GILLETTE       PTSUNNY   81  52  36 E7        29.89F                  
HULETT         FAIR      73  50  43 CALM      29.94                   
NEWCASTLE      FAIR      73  48  40 SE7       29.94                   

$$
WYZ014>020-022>026-101>103-182300-
CENTRAL WYOMING
  
CITY           SKY/WX    TMP DP  RH WIND       PRES   REMARKS
BIG PINEY      FAIR      81  30  15 NW13G26   30.15F                  
PINEDALE       FAIR      79  28  15 W17       30.16                   
DUBOIS         FAIR      77  27  15 NW16G31   30.10                   
LANDER         FAIR      88  35  15 N12       29.98F                  
RIVERTON       FAIR      86  34  15 SW15      29.96F                  
CASPER         FAIR      90  22   8 W25G35    29.94F                  
DOUGLAS        FAIR      92  28  10 W22G31    29.91F                  

$$
WYZ021-027>030-104>119-182300-
SOUTHERN WYOMING
  
CITY           SKY/WX    TMP DP  RH WIND       PRES   REMARKS
EVANSTON       FAIR      83  26  12 W15G25    30.18F                  
KEMMERER       FAIR      81  23  12 W23G33    30.18                   
ROCK SPRINGS   FAIR      85  27  12 W24G35    30.12F                  
DIXON          FAIR      86  26  11 S14G22    30.13F                  
RAWLINS        FAIR      86  25  11 W30G41    30.10F                  
SARATOGA       FAIR      84  27  12 W20G29    30.15F                  
LARAMIE        FAIR      84  23  10 W28G38    30.13F                  
CHEYENNE       FAIR      91  26   9 W18G31    30.03F                  
TORRINGTON     FAIR      88  54  31 SE12      29.87F                  
PINE BLUFFS    FAIR      82  45  26 S16G23    29.98F                  

$$